Regional Weather Roundup
Issued by NWS

Home | Current Version | Previous Version | Text Only | Print | Product List | Glossary On
Versions: 1 2 3 4 5 6 7 8 9 10 11 12 13 14 15 16 17 18 19 20 21 22 23 24 25 26 27 28 29 30 31 32 33 34 35 36 37 38 39 40 41 42 43 44 45 46 47 48 49 50
133
ASUS43 KDMX 250608
RWRIA

WEATHER ROUNDUP FOR IOWA
NATIONAL WEATHER SERVICE DES MOINES IA
100 AM CDT THU AUG 25 2016

NOTE: "FAIR" INDICATES FEW OR NO CLOUDS BELOW 12,000 FEET WITH NO
SIGNIFICANT WEATHER AND/OR OBSTRUCTIONS TO VISIBILITY.

* - THESE STATIONS ARE NOT NWS STATIONS...THUS NOT UNDER NWS
QUALITY CONTROL.  THEY ALSO DO NOT REPORT WEATHER SUCH
AS PRECIPITATION OR FOG.

IAZ001>003-012>014-020>022-031>034-043>046-250700-
   NORTHWEST IOWA

CITY           SKY/WX    TMP DP  RH WIND       PRES   REMARKS
CARROLL *      CLOUDY    63  61  94 NW6       30.06R
CHEROKEE *     CLEAR     62  60  92 CALM      30.08R
DENISON *      PTCLDY    63  61  94 CALM      30.05S
LE MARS *      CLEAR     61  57  88 CALM      30.09R
ORANGE CITY *  PTCLDY    61  55  82 NW6       30.09S
SHELDON *      PTCLDY    59  59 100 W6        30.07S
SIOUX CITY     CLEAR     59  56  89 NW3       30.08
6HR MIN TEMP:  58; 6HR MAX TEMP:  70;

SPENCER        CLEAR     56  54  93 NW5       30.08R
6HR MIN TEMP:  56; 6HR MAX TEMP:  70;

STORM LAKE *   CLEAR     63  59  88 NW12      30.08R
$$

IAZ055>058-069>071-079>083-090>094-250700-
   SOUTHWEST IOWA

CITY           SKY/WX    TMP DP  RH WIND       PRES   REMARKS
ATLANTIC *     PTCLDY    64  63  94 CALM      30.05R
AUDUBON *      PTCLDY    64  61  88 NW3       30.07R
CLARINDA *       N/A     64  64 100 MISG      30.07R
COUNCIL BLFS * CLEAR     63  61  94 N7        30.06S
CRESTON *      CLOUDY    68  64  88 N6        30.07R
HARLAN  *      CLEAR     61  61 100 N7        30.09S
LAMONI         CLOUDY    68  68 100 W3        30.05R
6HR MIN TEMP:  68; 6HR MAX TEMP:  77; 6HR PCP:  0.01;

RED OAK *      CLOUDY    66  64  94 CALM      30.05F
SHENANDOAH *   CLOUDY    64 N/A N/A CALM      30.06S
$$

IAZ047>049-059>061-072>074-084-250700-
   CENTRAL IOWA

CITY           SKY/WX    TMP DP  RH WIND       PRES   REMARKS
AMES           CLOUDY    69  65  86 N5        30.03R
6HR MIN TEMP:  69; 6HR MAX TEMP:  76;

ANKENY *         N/A    N/A N/A N/A MISG        N/A
BOONE *        CLOUDY    68  63  83 NW6       30.04R
CHARITON *       N/A     68  68 100 MISG      30.03R
DES MOINES     CLOUDY    72  67  84 N5        30.03R
6HR MIN TEMP:  71; 6HR MAX TEMP:  76; 6HR PCP:  0.13;

GRINNELL*      CLOUDY    69  66  91 CALM      30.04R
KNOXVILLE *    CLOUDY    68  68 100 W3        30.01R
MARSHALLTOWN   CLOUDY    67  66  97 CALM      30.02R
6HR MIN TEMP:  66; 6HR MAX TEMP:  74; 6HR PCP:  0.01;

NEWTON *       CLOUDY    70  70 100 CALM      30.02R
PELLA *        MOCLDY    68  67  97 CALM      30.03R
PERRY *          N/A     68  67  97 NW5       30.04S
$$

IAZ004>006-015-016-023>025-035-036-250700-
   NORTH CENTRAL IOWA

CITY           SKY/WX    TMP DP  RH WIND       PRES   REMARKS
ALGONA *       CLOUDY    64  59  82 NW8       30.07R
ESTHERVILLE    CLEAR     57  57 100 W7        30.07
6HR MIN TEMP:  57; 6HR MAX TEMP:  69;

FORT DODGE *   CLOUDY    64  61  88 CALM      30.06R
MASON CITY     PTCLDY    65  60  84 NW9       30.06R
6HR MIN TEMP:  64; 6HR MAX TEMP:  73;

FOREST CITY *    N/A    N/A N/A N/A MISG        N/A
WEBSTER CITY * CLOUDY    63  63 100 NW5       30.03R
IOWA FALLS *     N/A     65  62  90 NW5       30.04S
$$

IAZ007>011-017>019-026>030-037>042-050>054-066-250700-
   NORTHEAST IOWA

CITY           SKY/WX    TMP DP  RH WIND       PRES   REMARKS
CEDAR RAPIDS   MOCLDY    71  71 100 CALM      30.00
6HR MIN TEMP:  71; 6HR MAX TEMP:  77; 6HR PCP:  0.18;

CHARLES CITY * CLOUDY    64  63  94 NW6       30.02R
CLINTON *      CLOUDY    72  72 100 W5        29.99R FOG
DECORAH *      MOCLDY    66  63  88 NW6       30.00S
DUBUQUE        CLOUDY    73  69  87 N6        30.00R
6HR MIN TEMP:  72; 6HR MAX TEMP:  78;

MONTICELLO *   CLOUDY    73  70  88 N3        29.99R
OELWEIN *      CLOUDY    66  63  88 N6        30.01R
WATERLOO       CLOUDY    66  62  87 N6        29.99S
6HR MIN TEMP:  65; 6HR MAX TEMP:  75;

$$

IAZ064-065-067-068-078-250700-
   EAST CENTRAL IOWA

CITY           SKY/WX    TMP DP  RH WIND       PRES   REMARKS
DAVENPORT      CLOUDY    71  70  96 SW3       29.99S
6HR MIN TEMP:  71; 6HR MAX TEMP:  80; 6HR PCP:  0.50;

IOWA CITY      CLOUDY    72  71  97 CALM      30.01R
6HR MIN TEMP:  72; 6HR MAX TEMP:  80; 6HR PCP:  0.55;

MT. PLEASANT * LGT RAIN  71  71 100 SW3       30.02F
MUSCATINE *      N/A     72  70  94 S5        30.00R
QUAD CITIES    CLOUDY    72  69  90 W8        29.99
6HR MIN TEMP:  71; 6HR MAX TEMP:  82; 6HR PCP:  0.62;

$$

IAZ062-063-075>077-085>089-095>099-250700-
   SOUTHEAST IOWA

CITY           SKY/WX    TMP DP  RH WIND       PRES   REMARKS
BURLINGTON     RAIN      71  70  96 W9        30.03R FOG
6HR MIN TEMP:  71; 6HR MAX TEMP:  81; 6HR PCP:  0.22;

FAIRFIELD *    CLOUDY    68  66  94 SW3       30.02S
FORT MADISON * RAIN      70  70 100 CALM      30.05R
KEOKUK *       RAIN      73  72  94 CALM      30.03R
OSKALOOSA *    LGT RAIN  67  66  97 S3        30.02R
CENTERVILLE *  LGT RAIN  68  68 100 CALM      30.04S
OTTUMWA        LGT RAIN  68  66  93 S5        30.01S
6HR MIN TEMP:  66; 6HR MAX TEMP:  79; 6HR PCP:  0.29;

WASHINGTON *   LGT RAIN  68  68 100 SW5       30.03R
$$

ABBREVIATIONS USED IN REMARKS
   TC - TEMPERATURES IN CELSIUS
  WCI - WIND CHILL INDEX
   HX - HEAT INDEX
  VSB - VISIBILITY
$$





USA.gov is the U.S. government's official web portal to all federal, state and local government web resources and services.